Tracking 30746 objects as of 19-Jun-2025
HD Live streaming from Space Station
objects crossing your sky now

STARLINK-6187

Track STARLINK-6187 now!
10-day predictions
STARLINK-6187 is classified as:


NORAD ID: 56546
Int'l Code: 2023-065AV
Perigee: 565.1 km
Apogee: 567.2 km
Inclination: 43.0 °
Period: 95.8 minutes
Semi major axis: 6937 km
RCS: Unknown
Launch date: May 14, 2023
Source: United States (US)
Launch site: AIR FORCE EASTERN TEST RANGE (AFETR)
Your satellite tracking list
Your tracking list is empty




NASA's NSSDC Master Catalog

Two Line Element Set (TLE):
1 56546U 23065AV  25169.82599488  .00000424  00000-0  46418-4 0  9995
2 56546  43.0025 217.0450 0001528 277.5408  82.5261 15.02545309116781
Source of the keplerian elements: AFSPC